Location: Kott?ru
(16.6209°N, 80.6208°E)
Time: 20:27:18
(UTC+00:00)

COSMOS 2428 - Pass Details

Date: 18 September 2020
Orbit: 844 x 859 km, 70.9° (Epoch: 28 October)

Event Time Altitude Azimuth Distance (km) Brightness Sun altitude
Rises 23:37:30 0° 182° (S) 3,393 5.8 -12.5°
Reaches altitude 10° 23:40:03 10° 176° (S) 2,461 5.1 -11.9°
Maximum altitude 23:45:24 45° 104° (ESE) 1,140 4.0 -10.6°
Drops below altitude 10° 23:50:47 10° 33° (NNE) 2,474 5.7 -9.3°
Sets 23:53:19 0° 27° (NNE) 3,413 6.3 -8.7°
